{"data":{"norad_id":47884,"intl_designator":"2021-021AA","name":"STARLINK-2343","alt_names":[],"object_type":"PAYLOAD","status":"ACTIVE","operator":null,"country":"US","launch_date":"2021-03-14","launch_site_code":"AFETR","launch_vehicle":null,"mission":null,"orbit_class":"UNKNOWN","rcs_meters":null,"size_class":null,"mass_kg":null,"dimensions":null,"purposes":["comms"],"wikipedia_slug":null,"has_3d_model":false,"image_url":null,"decayed_at":null,"tle_current":{"epoch":"2026-05-24T20:49:41.331072Z","epoch_age_seconds":82620,"freshness":"FRESH","line1":"1 47884U 21021AA  26144.86783948  .00002065  00000+0  78323-4 0  9996","line2":"2 47884  53.1584 286.7154 0001181  83.5440 276.5696 15.31687251287723","mean_motion":15.31687251,"eccentricity":0.0001181,"inclination_deg":53.1584,"raan_deg":286.7154,"arg_perigee_deg":83.544,"mean_anomaly_deg":276.5696,"bstar":7.8323e-5,"rev_number":28772,"period_min":94.013970479931,"perigee_km":469.9691427334,"apogee_km":471.5868564563,"semimajor_km":6848.9149995948,"source":"CELESTRAK","updated_at":"2026-05-25T13:38:16.611270Z"}}}